Jaffrey, NH

5:47 PM EDT on May 28, 2017 (GMT -0400)
Jaffrey Airport-Silver Ranch

Weather History for KAFN - August, 2013

Change the Weather History Date:

Sunday, August 25, 2013

  Actual Average Record
Temperature  
Mean Temperature 62 °F -  
Max Temperature 78 °F 75 °F 90 °F (2007)
Min Temperature 46 °F 53 °F 46 °F (2001)
Degree Days  
Heating Degree Days 3    
Growing Degree Days 12 (Base 50)    
Moisture  
Dew Point 50 °F    
Average Humidity 66    
Maximum Humidity 93    
Minimum Humidity 31    
Precipitation  
Precipitation 0.00 in - - ()
Sea Level Pressure  
Sea Level Pressure 30.33 in    
Wind  
Wind Speed 2 mph (SW)    
Max Wind Speed 10 mph    
Max Gust Speed -    
Visibility 10 miles    
Events      
Averages and records for this station are not official NWS values.
T = Trace of Precipitation, MM = Missing Value Source: NWS Daily Summary

Daily Weather History Graph

Daily Weather History Graph

Search for Another Location

Airport or City:

Trip Planner

Search our weather history database for the weather conditions in past years. The results will help you decide how hot, cold, wet, or windy it might be!

Date:

Astronomy

Aug. 25, 2013 Rise Set
Actual Time 6:05 AM EDT 7:33 PM EDT
Civil Twilight 5:35 AM EDT 8:03 PM EDT
Nautical Twilight 4:59 AM EDT 8:39 PM EDT
Astronomical Twilight 4:21 AM EDT 9:16 PM EDT
Moon 9:54 PM EDT (8/25) 11:12 AM EDT (8/25)
Length of Visible Light 14h 27m
Length of Day
13h 28m
Waning Gibbous, 76% of the Moon is Illuminated
Aug 25
Waning Gibbous
Aug 28
Last Quarter
Sep 5
New
Sep 12
First Quarter
Sep 19
Full

Hourly Weather History & Observations

Time (EDT) Temp. Dew Point Humidity Pressure Visibility Wind Dir Wind Speed Gust Speed Precip Events Conditions
12:52 AM 51.1 °F 48.9 °F 92% 30.37 in 10.0 mi Calm Calm - N/A   Clear
1:52 AM 50.0 °F 48.0 °F 93% 30.36 in 10.0 mi Calm Calm - N/A   Clear
2:52 AM 48.9 °F 46.9 °F 93% 30.36 in 10.0 mi Calm Calm - N/A   Clear
3:52 AM 48.0 °F 46.0 °F 93% 30.36 in 10.0 mi Calm Calm - N/A   Clear
4:52 AM 46.9 °F 45.0 °F 93% 30.38 in 10.0 mi Calm Calm - N/A   Clear
5:52 AM 46.0 °F 44.1 °F 93% 30.40 in 10.0 mi Calm Calm - N/A   Clear
6:52 AM 46.9 °F 45.0 °F 93% 30.40 in 10.0 mi Calm Calm - N/A   Clear
7:05 AM 46.4 °F 44.6 °F 93% 30.39 in 10.0 mi Calm Calm - N/A   Partly Cloudy
7:52 AM 54.0 °F 52.0 °F 93% 30.41 in 10.0 mi Calm Calm - N/A   Clear
8:52 AM 63.0 °F 53.1 °F 70% 30.41 in 10.0 mi Calm Calm - N/A   Clear
9:52 AM 68.0 °F 53.1 °F 59% 30.41 in 10.0 mi Calm Calm - N/A   Clear
10:52 AM 72.0 °F 46.9 °F 41% 30.39 in 10.0 mi WSW 5.8 mph - N/A   Clear
11:52 AM 73.9 °F 46.0 °F 37% 30.36 in 10.0 mi Variable 3.5 mph - N/A   Clear
12:52 PM 75.0 °F 42.1 °F 31% 30.35 in 10.0 mi Variable 4.6 mph - N/A   Clear
1:52 PM 77.0 °F 44.1 °F 31% 30.34 in 10.0 mi WNW 8.1 mph - N/A   Clear
2:52 PM 78.1 °F 48.9 °F 36% 30.32 in 10.0 mi West 10.4 mph - N/A   Clear
3:52 PM 78.1 °F 51.1 °F 39% 30.30 in 10.0 mi Variable 5.8 mph - N/A   Clear
4:52 PM 77.0 °F 50.0 °F 39% 30.28 in 10.0 mi Variable 6.9 mph - N/A   Clear
5:52 PM 75.9 °F 52.0 °F 43% 30.27 in 10.0 mi SSW 5.8 mph - N/A   Clear
6:52 PM 73.9 °F 52.0 °F 46% 30.24 in 10.0 mi SSW 3.5 mph - N/A   Clear
7:52 PM 66.0 °F 55.9 °F 70% 30.25 in 10.0 mi Calm Calm - N/A   Clear
8:52 PM 64.0 °F 57.0 °F 78% 30.24 in 10.0 mi Calm Calm - N/A   Clear
9:52 PM 68.0 °F 55.0 °F 63% 30.22 in 10.0 mi SSW 4.6 mph - N/A   Clear
10:52 PM 66.0 °F 55.0 °F 68% 30.22 in 10.0 mi Calm Calm - N/A   Clear
11:52 PM 66.0 °F 55.0 °F 68% 30.21 in 10.0 mi SSW 3.5 mph - N/A   Clear